Flag for Bahrain Weather past 2 weeks in Manama, Bahrain

Now
70 °F

Clear.


Feels Like: 70 °F
Forecast: 64 / 75 °F
Wind: 10 mph from South

Location: Bahrain International Airport

Current Time: Jan 28, 2015 at 1:02:57 PM

Latest Report: Jan 28, 2015 at 12:00 PM


Visibility: 4 mi

Pressure: 30.04 "Hg

Humidity: 60%

Dew point: 55 °F

Location of ManamaLocation

Historic Weather in Manama — Graph

°F

Manama temperature yesterday

Maximum temperature yesterday: 72 °F (at 12:00 PM)
Minimum temperature yesterday: 61 °F (at 6:00 AM)
Average temperature yesterday: 66 °F

Past Weeks' High & Low Weather Summary

 TemperatureHumidityPressure
High72 °F (Jan 27, 12:00 PM)100% (Jan 17, 7:00 AM)30.27 "Hg (Jan 17, 7:00 AM)
Low54 °F (Jan 24, 4:00 AM)27% (Jan 24, 12:00 PM)30.01 "Hg (Jan 18, 2:00 PM)
Average62 °F69%30.14 "Hg
* Reported Jan 13 12:00 Noon — Jan 28 12:00 Noon, Manama, Weather by CustomWeather, © 2014

Note: Actual official high and low records may vary slightly from our data, if they occured in-between our weather recording intervals... More about our weather records

Advertising

Manama weather history for previous 24 hours

 ConditionsComfort  
Time TempWeatherWind HumidityBarometerVisibility
12:00 PM
Jan 28
70 °FClear.10 mph60%30.04 "Hg4 mi
11:00 AM68 °FClear.9 mph69%30.07 "Hg4 mi
10:00 AM66 °FHaze.8 mph73%30.09 "Hg3 mi
9:00 AM68 °FClear.8 mph73%30.09 "Hg4 mi
8:00 AM66 °FClear.6 mph73%30.09 "Hg4 mi
7:00 AM63 °FHaze.5 mph83%30.07 "Hg2 mi
6:00 AM63 °FClear.6 mph77%30.07 "Hg4 mi
5:00 AM63 °FClear.5 mph83%30.04 "Hg4 mi
4:00 AM64 °FClear.6 mph73%30.01 "Hg4 mi
3:00 AM64 °FClear.5 mph78%30.04 "Hg4 mi
2:00 AM64 °FClear.7 mph78%30.04 "Hg4 mi
1:00 AM64 °FClear.6 mph78%30.07 "Hg5 mi
12:00 AM66 °FClear.10 mph68%30.07 "Hg5 mi
11:00 PM
Jan 27
66 °FClear.9 mph68%30.07 "Hg5 mi
10:00 PM64 °FClear.12 mph83%30.09 "Hg5 mi
9:00 PM66 °FClear.12 mph83%30.09 "Hg5 mi
8:00 PM66 °FClear.10 mph78%30.09 "Hg5 mi
7:00 PM66 °FClear.9 mph78%30.09 "Hg6 mi
6:00 PM66 °FClear.7 mph73%30.07 "Hg6 mi
5:00 PM68 °FSunny.8 mph73%30.07 "Hg10 mi
4:00 PM70 °FSunny.12 mph64%30.07 "Hg10 mi
3:00 PM72 °FPassing clouds.12 mph47%30.07 "HgN/A
2:00 PM72 °FSunny.8 mph47%30.09 "Hg6 mi
1:00 PM72 °FSunny.9 mph53%30.09 "Hg5 mi
Weather by CustomWeather, © 2014

See weather overviewHow to use our weather pages